EUTELSAT 5 WEST B

Last updated on Jan. 23, 2020, 4:39 a.m. UTC

1 44624U 19067A   20022.25308973 -.00000050  00000-0  00000-0 0  9992
2 44624   0.0391 304.2507 0001616  97.2134 165.6899  1.00271327  1015
UTC
Height (km)
Latitude
Longitude
Inclination
Orbital Period
UTC large
Height (km)
Speed (km/s)
/
Latitude / Longitude
Inclination (degrees)
Orbital Period (minutes)
Azimuth
Elevation
Range (km)
Doppler Factor
iOS Compass Heading
iOS Angle

Next 30 passes for location: Hong Kong

Rise time Rise Azimuth (degrees) Set time Set Azimuth (degrees) Duration Max altitude (degrees)

No matching passes for this satellites